Weather in Mogilno

Poland     52°39′23″N   17°57′06″E
temp.,
°C
wind,
m/s
gust,
m/s
humid.,
%
clouds,
%
prec.,
mm/h
press.,
hPa
HPBL,
m
21 april, wed
wed2123:00+10nnw117983 0.8 101213
02:00+7w229071 1.1 101216
05:00+6nnw33934 0.1 101133
08:00+9wnw348341 0.1 1011236
11:00+13wnw45635 0.0 1011891
14:00+15wnw56426 0.0 10101922
17:00+15wnw564853 0.0 10092096
20:00+10nw497338 0.1 1010181
22 april, thu
thu2223:00+6nw4988100 0.1 1012542
02:00+5w61072100 0.2 1012498
05:00+2w612805 0.0 1013574
08:00+3w81174100 0.0 1014906
11:00+7w9116097 0.0 10141535
14:00+9w91251100 0.6 10142145
17:00+9nw9144744 0.7 10142370
20:00+5nw8154899 0.7 1016953
23 april, fri
fri2323:00+3w613575 0.0 1017420
02:00+2w5126683 0.0 1018274
05:00+1w5127380 0.0 1018305
08:00+4w697141 0.0 1019384
11:00+7w7964100 0.4 10191249
14:00+6nw8117494 1.6 10191460
17:00+8nw8124456 0.2 10202967
20:00+4nw511530 0.2 1022277
24 april, sat
sat2423:00+1w49630 0.0 1023159
02:00+1w410740 0.0 1023184
05:00−1w410792 0.0 1024171
08:00+4wnw58600 0.0 1024313
11:00+8w45430 0.0 10231430
14:00+10w573879 0.0 10222222
17:00+10nw674488 0.0 10202028
20:00+6n61054100 0.3 1022500
25 april, sun
sun2523:00+1nnw366146 0.0 1024103
02:00−1nw33604 0.0 102530
05:00−1wnw34665 0.0 102553
08:00+3wnw46620 0.0 1025335
11:00+8nw694088 0.0 10252284
14:00+10nw71036100 0.0 10232646
17:00+10nw69415 0.0 10222292
20:00+4n335891 0.0 102222